Weather History for Springfield, VT

Change the Weather History Date:

Thursday, July 5, 2012

  Actual Average Record
Temperature  
Mean Temperature 71 °F 69 °F  
Max Temperature 81 °F 81 °F 96 °F (1999)
Min Temperature 61 °F 57 °F 51 °F (2000)
Cooling Degree Days 6 4  
Month to date cooling degree days 41 20  
Year to date cooling degree days 191 96  
Since 1 June cooling degree days 130 84  
Growing Degree Days 22 (Base 50)    
Moisture  
Dew Point 59 °F    
Average Humidity 68    
Maximum Humidity 93    
Minimum Humidity 42    
Precipitation  
Precipitation 0.00 in 0.14 in 0.75 in (2004)
Month to date precipitation 0.35 0.62  
Year to date precipitation 16.78 20.78  
Sea Level Pressure  
Sea Level Pressure 29.82 in    
Wind  
Wind Speed 4 mph (North)    
Max Wind Speed 13 mph    
Max Gust Speed 18 mph    
Visibility 10 miles    
Events      
T = Trace of Precipitation, MM = Missing Value Source: NWS Daily Summary

Daily Weather History Graph

Daily Weather History Graph

Search for Another Location

Airport:

Trip Planner

Search our weather history database for the weather conditions in past years. The results will help you decide how hot, cold, wet, or windy it might be!

Date:

Astronomy

Jul. 05, 2012 Rise Set
Actual Time 5:16 AM EDT 8:33 PM EDT
Civil Twilight 4:40 AM EDT 9:08 PM EDT
Nautical Twilight 3:55 AM EDT 9:53 PM EDT
Astronomical Twilight 2:59 AM EDT 10:49 PM EDT
Moon 9:42 PM EDT (7/5) 7:29 AM EDT (7/5)
Length of Visible Light 16h 27m
Length of Day
15h 16m
Waning Gibbous, 95% of the Moon is Illuminated
Jul 5
Waning Gibbous
Jul 10
Last Quarter
Jul 19
New
Jul 26
First Quarter
Aug 1
Full

Hourly Weather History & Observations

Time (EDT) Temp. Heat Index Dew Point Humidity Pressure Visibility Wind Dir Wind Speed Gust Speed Precip Events Conditions
12:54 AM 68.0 °F - 64.9 °F 90% 29.74 in 10.0 mi Calm Calm - N/A   Clear
1:54 AM 66.9 °F - 64.0 °F 90% 29.74 in 10.0 mi Calm Calm - N/A   Scattered Clouds
2:54 AM 64.9 °F - 63.0 °F 93% 29.73 in 8.0 mi Calm Calm - N/A   Clear
4:54 AM 63.0 °F - 61.0 °F 93% 29.76 in 6.0 mi Calm Calm - N/A   Partly Cloudy
5:54 AM 63.0 °F - 61.0 °F 93% 29.78 in 9.0 mi North 3.5 mph - N/A   Clear
6:54 AM 66.9 °F - 63.0 °F 87% 29.78 in 10.0 mi Calm Calm - N/A   Clear
7:54 AM 72.0 °F - 60.1 °F 66% 29.79 in 10.0 mi Variable 5.8 mph - N/A   Scattered Clouds
8:54 AM 75.0 °F - 55.0 °F 50% 29.81 in 10.0 mi Variable 5.8 mph - N/A   Mostly Cloudy
9:54 AM - - - N/A% 29.83 in - North - - N/A   Unknown
10:54 AM - - - N/A% 29.83 in - North - - N/A   Unknown
11:54 AM 78.1 °F - 55.0 °F 45% 29.83 in 10.0 mi NNE 8.1 mph 16.1 mph N/A   Partly Cloudy
12:54 PM 79.0 °F - 55.0 °F 44% 29.82 in 10.0 mi North 10.4 mph 17.3 mph N/A   Mostly Cloudy
1:54 PM 80.1 °F 80.2 °F 55.9 °F 43% 29.81 in 10.0 mi North 10.4 mph - N/A   Mostly Cloudy
2:54 PM 79.0 °F - 55.9 °F 45% 29.82 in 10.0 mi NNE 6.9 mph - N/A   Mostly Cloudy
3:54 PM 80.1 °F 80.2 °F 55.9 °F 43% 29.84 in 10.0 mi North 10.4 mph - N/A   Mostly Cloudy
4:54 PM 79.0 °F - 55.9 °F 45% 29.84 in 10.0 mi Variable 6.9 mph - N/A   Mostly Cloudy
5:54 PM 79.0 °F - 57.9 °F 48% 29.85 in 10.0 mi West 8.1 mph - N/A   Partly Cloudy
6:54 PM 80.1 °F 80.6 °F 57.9 °F 47% 29.85 in 10.0 mi Calm Calm - N/A   Partly Cloudy
7:54 PM 77.0 °F - 57.9 °F 52% 29.86 in 10.0 mi NE 3.5 mph - N/A   Clear
8:54 PM 73.0 °F - 60.1 °F 64% 29.86 in 10.0 mi Calm Calm - N/A   Clear
9:54 PM 66.9 °F - 61.0 °F 81% 29.89 in 10.0 mi South 3.5 mph - N/A   Clear
10:54 PM 64.9 °F - 61.0 °F 87% 29.90 in 10.0 mi Calm Calm - N/A   Clear
11:54 PM 64.0 °F - 60.1 °F 87% 29.91 in 10.0 mi Calm Calm - N/A   Clear